Location: Southlake
(32.9412°N, 97.1342°W)
Time: 15:17:42
(UTC+00:00)

Tiangong - Visible Passes

Search period start: 15 April 2024 00:00
Search period end: 25 April 2024 00:00
Orbit: 371 x 381 km, 41.5° (Epoch: 15 April)

Date Brightness Start Highest point End Pass type
(mag) Time Alt. Az. Time Alt. Az. Time Alt. Az.
16 Apr -1.3 01:54:20 10° SSW 01:57:03 29° SE 01:57:59 24° ESE visible
17 Apr -2.0 02:28:02 10° WSW 02:31:05 69° NNW 02:31:34 56° NNE visible
18 Apr -2.1 01:25:37 10° SW 01:28:37 55° SSE 01:31:39 10° ENE visible
18 Apr 0.1 03:02:43 10° WNW 03:04:51 25° NW 03:04:51 25° NW visible
19 Apr -1.0 01:59:50 10° W 02:02:46 41° NNW 02:05:44 10° NE visible
19 Apr 1.5 03:37:44 10° NW 03:37:53 11° NW 03:37:53 11° NW visible
20 Apr 0.2 02:34:45 10° WNW 02:37:11 21° NNW 02:38:41 15° NNE visible
21 Apr -0.3 01:31:46 10° W 01:34:30 28° NNW 01:37:13 10° NE visible
21 Apr 0.6 03:09:40 10° NW 03:11:22 16° N 03:11:22 16° N visible
22 Apr 0.4 02:06:47 10° NW 02:08:58 18° N 02:11:11 10° NE visible
23 Apr 0.2 02:41:27 10° NW 02:43:33 17° N 02:44:24 15° NNE visible
24 Apr 0.4 01:38:42 10° NW 01:40:47 16° N 01:42:51 10° NE visible
24 Apr 0.5 03:15:28 10° NW 03:16:51 19° NNW 03:16:51 19° NNW visible
